Regional Weather Roundup
Issued by NWS

Home | Current Version | Previous Version | Text Only | Print | Product List | Glossary Off
Versions: 1 2 3 4 5 6 7 8 9 10 11 12 13 14 15 16 17 18 19 20 21 22 23 24 25 26 27 28 29 30 31 32 33 34 35 36 37 38 39 40 41 42 43 44 45 46 47 48 49 50

000
ASUS45 KCYS 220410
RWRWY

WYOMING REGIONAL WEATHER ROUNDUP
NATIONAL WEATHER SERVICE CHEYENNE WY
1000 PM MDT SUN SEP 21 2014

NOTE:  "FAIR" INDICATES FEW OR NO CLOUDS BELOW 12,000 FEET
WITH NO SIGNIFICANT WEATHER AND/OR OBSTRUCTIONS TO VISIBILITY.

WYZ001-220500-
YELLOWSTONE NATIONAL PARK

CITY           SKY/WX    TMP DP  RH WIND       PRES   REMARKS
LK YELLOWSTONE   N/A     51  44  77 CALM      30.33F
W YELLOWSTONE  NOT AVBL

$$
WYZ002>013-054>058-071-098>099-220500-
NORTHERN WYOMING

CITY           SKY/WX    TMP DP  RH WIND       PRES   REMARKS
JACKSON        CLOUDY    54  52  94 CALM      30.28R
CODY             N/A    N/A N/A N/A MISG        N/A
GREYBULL       CLOUDY    65  46  50 SE5       30.09F
WORLAND        CLOUDY    67  43  41 SE10      30.10F
SHERIDAN       MOCLDY    63  44  50 S10       30.12F
BUFFALO        MOCLDY    60  43  53 S9        30.22F
GILLETTE       MOCLDY    62  39  42 S16       30.21F
HULETT         FAIR      57  39  51 MISG      30.23
NEWCASTLE      FAIR      63  34  34 SE14G20   30.26

$$
WYZ014>020-022>026-101>103-220500-
CENTRAL WYOMING

CITY           SKY/WX    TMP DP  RH WIND       PRES   REMARKS
BIG PINEY      CLOUDY    52  50  93 E7        30.32S
PINEDALE       RAIN      52  52 100 E8        30.35R
DUBOIS         LGT RAIN  52  43  71 NW5       30.30S
LANDER         CLOUDY    63  43  48 VRB3      30.19F
RIVERTON       CLOUDY    66  39  37 SW3       30.19F
CASPER         MOCLDY    62  41  46 E10       30.21F
DOUGLAS        MOCLDY    59  40  49 SE8       30.26F

$$
WYZ021-027>030-104>119-220500-
SOUTHERN WYOMING

CITY           SKY/WX    TMP DP  RH WIND       PRES   REMARKS
EVANSTON       PTCLDY    49  46  90 E8        30.30S
KEMMERER       MOCLDY    50  48  93 CALM      30.32S
FORT BRIDGER     N/A     50  50  99 CALM      30.33F
ROCK SPRINGS   CLOUDY    53  49  86 S9        30.28F
DIXON          LGT RAIN  56  52  88 CALM      30.34F
RAWLINS        CLOUDY    60  47  61 SW20G25   30.32R
SARATOGA       FAIR      59  46  63 W14G22    30.35S
LARAMIE        CLOUDY    53  48  83 S9        30.36F
CHEYENNE       CLOUDY    57  39  51 SE14      30.34F
TORRINGTON     MOCLDY    59  42  53 E12       30.26S
PINE BLUFFS    FAIR      59  37  44 SE18G25   30.31F

$$



USA.gov is the U.S. government's official web portal to all federal, state and local government web resources and services.